Location: Unspecified
(58.9933°N, 5.6375°E)
Time: 19:27:30
(UTC+02:00)

Okean 3 - Visible Passes

Search period start: 19 April 2014 00:00
Search period end: 29 April 2014 00:00
Orbit: 583 x 612 km, 82.5° (Epoch: 19 April)

Date Brightness Start Highest point End Pass type
(mag) Time Alt. Az. Time Alt. Az. Time Alt. Az.
19 Apr 5.4 00:00:04 10° SW 00:03:49 29° WNW 00:07:34 10° N visible
19 Apr 3.4 22:32:32 10° S 22:36:47 72° E 22:41:03 10° NNE visible
20 Apr 5.8 00:11:20 10° WSW 00:14:42 22° WNW 00:18:04 10° N visible
20 Apr 3.6 22:43:11 10° SSW 22:47:28 82° WNW 22:51:45 10° NNE visible
21 Apr 6.2 00:22:46 10° W 00:25:37 17° NW 00:28:28 10° NNW visible
21 Apr 4.1 22:53:58 10° SSW 22:58:11 59° WNW 23:02:24 10° N visible
22 Apr 6.4 00:34:28 10° W 00:36:34 13° NW 00:38:41 10° NNW visible
22 Apr 4.8 23:04:52 10° SW 23:08:56 42° WNW 23:13:00 10° N visible
23 Apr 6.8 00:46:51 10° NW 00:47:34 10° NW 00:48:16 10° NW visible
23 Apr 5.4 23:15:54 10° SW 23:19:44 31° WNW 23:23:33 10° N visible
24 Apr 5.9 23:27:05 10° WSW 23:30:33 24° WNW 23:34:02 10° N visible
25 Apr 3.5 21:59:05 10° SSW 22:03:21 90° ESE 22:07:37 10° NNE visible
25 Apr 6.3 23:38:25 10° W 23:41:25 18° NW 23:44:25 10° N visible
26 Apr 4.0 22:09:48 10° SSW 22:14:01 65° WNW 22:18:15 10° N visible
26 Apr 6.5 23:49:59 10° W 23:52:20 14° NW 23:54:40 10° NNW visible
27 Apr 4.7 22:20:37 10° SW 22:24:43 47° WNW 22:28:50 10° N visible
28 Apr 6.8 00:01:59 10° WNW 00:03:16 11° NW 00:04:33 10° NNW visible
28 Apr 5.4 22:31:34 10° SW 22:35:28 34° WNW 22:39:21 10° N visible
